Wind_Speed
27 26 26 27 27 27 28 29 30 30 30 29 28 28 28 28 29 29 30 30 31 31 31 31 32 32 32 33 32 33 34 35 36 36 36 36 37 37 37 37 37 37 38 39
28 27 27 27 26 26 27 28 29 30 29 27 27 26 26 26 27 27 28 29 29 29 29 30 30 31 32 32 32 32 33 34 33 33 34 34 34 34 34 35 35 35 36 36
29 29 29 28 25 26 27 28 29 29 28 27 26 25 24 25 25 25 26 26 27 28 29 29 30 31 31 31 32 32 33 33 33 33 34 34 33 33 33 33 34 34 35 35
30 30 30 28 27 27 28 28 27 28 27 27 26 24 23 24 24 25 25 26 26 27 28 28 29 30 30 31 31 31 32 32 33 33 33 33 33 33 32 32 33 33 34 34
29 30 31 29 28 28 28 27 26 27 26 25 25 24 23 25 25 25 26 26 26 26 27 27 28 28 29 30 30 30 31 31 31 32 32 31 31 31 31 31 31 32 32 32
29 30 30 28 27 27 28 26 25 26 26 25 24 25 24 25 26 26 26 26 26 25 26 26 26 27 27 28 28 29 29 29 29 29 29 29 29 29 29 29 29 29 30 30
28 29 29 27 27 26 26 25 24 24 25 26 25 25 25 25 25 25 26 26 26 26 26 26 25 26 25 26 27 27 27 27 27 27 27 28 28 28 28 28 28 28 28 29
27 28 27 26 26 25 25 25 24 24 25 25 25 25 25 25 25 24 24 24 24 24 24 25 25 24 24 24 24 25 25 26 26 26 26 26 27 27 26 26 26 26 27 27
26 26 25 25 24 24 24 24 24 24 24 24 24 24 24 24 24 24 24 24 23 24 24 25 24 23 22 22 23 23 24 24 25 25 25 25 25 25 25 25 25 25 25 26
25 24 24 23 23 23 23 23 23 23 22 22 23 23 23 23 23 24 23 22 23 23 24 24 23 23 22 22 22 23 23 23 23 24 24 23 23 23 23 23 24 23 23 24
24 23 23 23 22 22 22 22 22 22 22 21 22 22 22 22 23 22 22 22 23 24 24 23 23 23 22 22 22 22 22 22 22 21 22 22 22 22 22 22 22 22 22 22
24 23 23 22 22 21 22 22 22 22 21 22 21 21 22 22 22 22 22 22 23 22 22 22 21 21 21 21 21 21 21 21 21 20 20 21 21 21 21 22 22 21 22 21
23 22 22 22 21 21 21 21 21 21 21 21 21 21 22 21 22 22 22 22 21 21 20 20 20 20 20 20 20 20 20 20 20 20 19 19 19 20 20 21 21 21 22 22
22 21 21 20 20 20 20 20 20 20 21 21 21 21 21 21 21 21 20 19 19 18 18 19 18 18 18 18 18 19 19 19 19 19 19 19 19 20 20 20 20 20 21 21
21 20 20 20 20 20 20 19 19 19 20 20 20 20 19 19 19 19 19 18 17 17 17 17 17 17 17 17 17 17 18 18 18 19 19 19 20 20 20 19 19 20 20 20
20 19 19 19 19 19 19 18 18 18 18 19 19 18 18 18 17 17 17 17 16 16 16 16 17 17 16 16 16 17 17 17 17 18 18 18 18 19 19 19 19 19 19 19
19 18 18 18 18 18 17 17 17 17 17 17 16 16 16 16 16 16 17 17 15 15 15 16 16 16 15 15 15 16 16 17 17 17 17 17 17 17 17 17 17 17 17 17
17 17 17 17 17 16 16 16 16 16 16 16 15 15 15 16 16 16 16 16 15 14 14 14 14 14 14 14 15 15 14 14 14 15 15 15 15 15 15 15 16 16 16 16
17 17 17 17 16 16 15 15 15 16 16 15 15 15 15 15 15 15 15 14 13 13 14 14 14 14 14 14 14 14 13 13 13 13 14 14 14 14 14 15 15 15 15 15
17 17 17 17 16 15 14 14 15 15 15 15 14 14 15 15 15 15 15 14 13 14 14 14 14 14 13 13 13 13 13 13 13 13 13 14 14 14 14 14 14 14 14 14
17 17 17 16 15 15 15 15 15 15 15 15 14 14 14 14 15 15 14 13 13 13 14 14 13 13 13 13 13 13 13 14 14 14 14 14 14 14 14 14 13 13 13 13
17 16 16 15 15 15 15 15 15 15 15 14 14 14 13 14 14 13 13 12 13 13 13 13 13 13 13 13 14 13 13 14 14 14 14 14 13 13 13 13 12 12 12 13
16 16 16 16 16 16 16 16 16 15 14 13 13 13 13 13 12 12 11 11 11 12 12 13 13 13 13 14 14 14 14 14 14 14 14 14 14 13 13 12 12 12 12 13
16 16 16 16 16 16 16 16 15 14 13 13 13 13 13 12 11 11 11 11 11 12 12 13 13 13 13 13 14 14 14 14 14 14 14 14 13 13 13 12 12 12 12 12
16 16 16 16 15 16 16 15 14 13 13 13 13 13 12 11 11 10 10 11 12 12 13 13 13 13 13 13 14 14 14 14 13 13 13 12 12 12 12 12 12 12 12 12
16 16 15 15 15 15 15 14 13 12 12 12 13 12 11 11 10 11 11 12 12 13 13 13 13 13 13 13 13 13 13 13 13 13 13 12 12 12 12 12 13 12 12 12
15 15 15 15 15 14 13 13 13 12 12 12 12 11 11 11 11 11 12 12 12 13 13 13 13 13 13 13 13 13 13 13 12 12 12 12 12 12 12 12 12 12 11 11
Wind_Direction
291 292 292 291 288 287 285 285 286 289 290 291 289 287 286 284 282 278 276 274 273 273 271 270 270 269 270 271 270 270 270 270 271 271 271 269 269 268 267 267 267 267 267 266
289 290 291 291 291 289 287 286 287 289 290 290 286 286 286 284 283 280 278 276 274 272 270 270 270 270 270 270 270 271 272 272 271 271 270 269 268 268 267 267 267 267 267 267
289 289 289 291 292 290 289 288 290 289 289 287 285 286 285 283 282 283 281 279 276 273 271 271 272 271 270 269 271 272 272 271 271 272 271 269 269 269 268 267 267 267 268 268
291 290 289 291 290 290 290 290 291 289 287 285 283 284 284 284 284 284 283 281 278 276 274 273 273 272 271 270 271 271 272 272 272 272 271 270 269 269 269 268 268 268 269 269
292 291 290 290 290 290 291 291 290 288 286 283 283 285 284 283 284 284 282 280 279 277 276 274 274 274 273 272 272 272 273 273 272 271 270 269 269 268 268 268 269 269 269 270
293 292 292 294 291 289 290 290 290 288 285 284 285 285 286 283 284 284 282 280 280 278 277 277 276 276 275 273 271 272 272 272 272 271 269 269 269 269 269 269 269 270 270 271
293 292 292 295 294 292 290 290 289 288 287 286 286 287 287 285 285 284 282 280 280 279 278 278 278 278 276 274 272 272 273 272 272 272 271 270 270 269 269 270 270 271 271 273
292 293 295 295 294 293 291 289 288 288 288 288 288 289 289 287 286 287 285 283 281 279 279 280 280 278 276 275 274 274 274 274 273 272 272 271 270 269 269 270 271 271 272 273
292 293 294 293 293 293 292 290 289 290 290 289 290 292 292 290 288 289 287 284 281 280 280 281 280 278 276 275 275 275 276 275 274 272 271 270 269 268 269 270 272 273 274 275
294 295 293 293 294 295 295 293 291 292 290 289 290 292 293 291 290 290 289 284 282 283 283 281 279 277 275 275 276 277 277 276 274 273 271 270 269 268 269 271 274 275 276 277
294 294 292 291 293 294 296 295 294 292 291 291 291 290 292 293 294 291 288 286 283 283 283 282 280 277 276 276 277 277 277 276 274 273 271 270 270 269 271 273 275 276 276 276
295 293 293 293 294 294 295 295 293 290 289 291 291 290 292 293 294 292 291 288 286 283 282 282 281 279 278 278 277 277 277 276 275 275 274 273 272 271 271 273 274 275 275 276
296 294 294 295 295 295 295 296 295 290 288 290 291 290 292 292 292 293 294 292 287 284 283 283 282 280 279 279 279 279 278 277 275 274 273 273 273 273 273 273 274 275 275 277
296 296 296 295 295 295 296 297 297 294 291 290 291 291 291 292 293 295 296 295 289 284 283 284 284 283 283 282 281 281 278 276 275 274 273 274 274 274 274 274 275 276 275 276
298 298 298 298 297 297 298 299 298 296 295 293 292 291 290 292 295 296 296 295 291 286 284 286 287 287 287 284 282 282 279 277 275 275 275 275 275 275 275 275 275 276 276 277
300 300 300 301 301 299 300 301 300 297 297 297 294 291 291 293 295 298 300 297 292 289 288 289 289 289 287 286 284 283 279 277 277 277 276 275 276 276 275 275 277 278 277 276
300 301 302 303 304 304 304 303 301 299 298 297 295 293 293 294 295 298 301 298 294 293 293 293 292 290 288 286 286 285 281 279 278 277 278 278 278 278 278 278 278 279 279 276
299 302 303 303 306 306 305 303 301 302 301 299 296 296 296 297 296 299 301 299 294 294 294 295 295 293 290 288 288 287 285 283 280 280 280 282 282 281 281 281 281 281 279 277
298 301 302 303 306 307 305 304 305 304 304 303 299 297 298 297 298 301 301 299 295 293 293 294 294 293 292 290 290 289 287 286 285 284 283 284 285 284 282 282 282 282 281 279
296 298 299 301 303 306 306 306 306 304 304 304 302 301 300 300 300 300 300 298 295 295 294 294 294 293 292 292 292 290 289 289 288 287 287 286 287 285 284 285 283 282 282 282
297 298 298 298 300 302 304 306 306 304 304 304 303 302 302 302 301 301 300 299 298 297 296 295 294 293 292 293 295 293 291 289 288 288 289 289 288 286 286 285 284 283 282 283
297 298 298 298 298 299 302 305 306 305 304 303 303 304 304 304 304 302 301 300 299 299 297 294 292 292 292 292 294 294 293 291 289 288 288 288 288 287 288 287 284 283 283 284
295 296 297 296 298 299 301 302 303 305 303 301 301 303 304 304 304 304 303 303 302 302 301 298 295 295 296 295 295 295 294 293 292 290 288 287 285 284 283 284 283 282 284 285
293 296 296 296 297 298 299 299 299 300 299 299 300 302 303 303 304 304 305 306 306 307 306 304 301 300 299 297 296 295 293 293 292 291 289 287 286 283 281 282 283 283 285 287
292 295 297 297 297 297 298 298 296 295 294 298 301 301 301 300 300 303 306 309 311 312 311 308 306 303 301 299 299 297 295 294 294 292 290 290 288 285 282 281 283 285 287 288
292 294 296 297 298 298 298 298 297 295 294 296 299 300 298 298 300 302 306 308 311 312 313 311 308 306 303 301 300 299 298 297 297 294 291 289 288 285 283 282 283 284 284 285
291 292 294 296 298 298 297 297 296 293 294 297 298 297 295 297 301 304 306 309 310 311 311 311 310 308 305 303 302 301 300 298 297 295 292 288 286 286 286 284 283 281 280 278
Height
5591 5589 5587 5584 5583 5581 5578 5577 5574 5573 5572 5571 5569 5566 5565 5563 5562 5561 5561 5561 5561 5561 5561 5561 5561 5562 5562 5562 5562 5563 5563 5563 5563 5563 5563 5563 5563 5563 5563 5563 5564 5564 5564 5565
5585 5583 5580 5578 5577 5574 5572 5570 5568 5566 5565 5564 5561 5559 5557 5556 5555 5554 5553 5553 5552 5552 5552 5552 5552 5553 5553 5553 5553 5553 5553 5553 5553 5553 5553 5553 5553 5553 5553 5553 5554 5554 5554 5555
5578 5576 5573 5571 5571 5568 5566 5564 5562 5559 5559 5556 5554 5552 5551 5549 5548 5547 5546 5545 5544 5544 5543 5544 5544 5544 5544 5544 5544 5544 5544 5544 5544 5543 5543 5543 5543 5543 5543 5544 5544 5544 5544 5544
5570 5569 5566 5568 5564 5562 5559 5558 5555 5552 5550 5549 5547 5546 5545 5543 5541 5540 5539 5538 5537 5536 5535 5535 5535 5535 5535 5535 5535 5535 5535 5534 5534 5534 5533 5533 5533 5534 5534 5534 5534 5534 5534 5534
5563 5560 5558 5560 5557 5554 5552 5551 5549 5546 5544 5542 5541 5540 5539 5537 5535 5533 5532 5531 5529 5528 5528 5527 5527 5527 5527 5527 5526 5526 5526 5525 5525 5524 5524 5524 5524 5524 5525 5525 5525 5525 5525 5525
5556 5553 5551 5553 5551 5547 5546 5544 5543 5540 5538 5536 5534 5534 5533 5530 5528 5527 5525 5524 5522 5521 5521 5520 5520 5519 5518 5518 5518 5518 5517 5516 5516 5515 5515 5516 5516 5516 5516 5516 5516 5516 5516 5516
5550 5546 5545 5545 5543 5541 5540 5539 5536 5533 5532 5530 5528 5527 5526 5523 5522 5520 5518 5517 5515 5514 5513 5513 5512 5511 5511 5510 5510 5510 5509 5508 5508 5508 5507 5507 5507 5507 5508 5508 5508 5508 5508 5507
5544 5541 5542 5539 5536 5535 5533 5530 5528 5527 5525 5524 5522 5520 5518 5517 5515 5513 5511 5510 5509 5508 5507 5506 5505 5504 5504 5503 5503 5502 5502 5501 5501 5500 5500 5500 5500 5500 5500 5500 5500 5500 5499 5499
5539 5538 5535 5532 5530 5528 5526 5524 5522 5520 5519 5517 5516 5514 5513 5511 5509 5507 5505 5504 5502 5502 5501 5500 5499 5498 5497 5497 5496 5496 5495 5494 5494 5493 5493 5492 5492 5493 5493 5492 5492 5492 5492 5491
5532 5531 5529 5526 5524 5522 5520 5518 5516 5515 5513 5512 5510 5509 5507 5505 5503 5501 5499 5498 5497 5495 5494 5493 5492 5492 5491 5490 5490 5489 5488 5488 5487 5486 5486 5486 5486 5486 5485 5485 5485 5485 5484 5484
5526 5525 5523 5521 5519 5517 5515 5513 5510 5509 5507 5506 5504 5503 5501 5500 5498 5496 5494 5492 5491 5489 5488 5487 5486 5485 5485 5484 5483 5483 5482 5481 5481 5480 5479 5479 5479 5479 5479 5479 5478 5478 5477 5477
5521 5519 5517 5515 5513 5511 5509 5507 5505 5504 5502 5501 5499 5498 5496 5494 5492 5490 5488 5487 5485 5483 5482 5481 5480 5479 5478 5478 5477 5477 5476 5475 5475 5474 5473 5473 5473 5473 5472 5472 5472 5471 5471 5470
5515 5513 5511 5509 5508 5506 5504 5502 5500 5498 5497 5495 5494 5492 5490 5488 5487 5485 5483 5481 5479 5478 5477 5475 5474 5473 5473 5472 5471 5470 5470 5469 5469 5468 5468 5467 5467 5467 5466 5466 5465 5465 5464 5464
5510 5508 5506 5504 5502 5501 5499 5497 5495 5493 5491 5490 5488 5486 5485 5483 5481 5479 5477 5475 5474 5472 5471 5470 5469 5468 5467 5466 5465 5464 5464 5463 5463 5462 5462 5461 5461 5461 5460 5460 5459 5459 5458 5457
5505 5502 5501 5499 5497 5495 5494 5492 5490 5488 5486 5484 5482 5481 5479 5478 5476 5474 5473 5471 5469 5468 5466 5465 5464 5463 5461 5460 5460 5459 5458 5457 5457 5456 5456 5455 5455 5454 5454 5454 5453 5453 5452 5451
5500 5497 5496 5494 5492 5490 5489 5487 5485 5483 5481 5479 5478 5476 5474 5473 5471 5470 5468 5466 5465 5463 5462 5461 5459 5458 5457 5456 5455 5454 5453 5452 5451 5451 5450 5450 5449 5449 5448 5448 5447 5446 5446 5446
5495 5493 5491 5490 5488 5486 5484 5482 5480 5478 5476 5475 5473 5471 5470 5469 5467 5466 5464 5462 5460 5459 5457 5456 5455 5453 5452 5451 5450 5449 5448 5447 5446 5446 5445 5444 5444 5443 5442 5442 5442 5441 5441 5440
5491 5489 5487 5486 5484 5482 5480 5478 5476 5474 5472 5470 5469 5468 5466 5465 5463 5462 5460 5458 5456 5455 5453 5452 5450 5449 5448 5447 5446 5444 5443 5442 5441 5441 5440 5440 5439 5438 5438 5437 5437 5436 5436 5436
5487 5486 5484 5482 5480 5478 5476 5474 5472 5470 5468 5467 5465 5464 5462 5461 5459 5458 5456 5454 5452 5451 5450 5448 5447 5445 5444 5443 5441 5440 5439 5438 5437 5437 5436 5435 5435 5434 5433 5433 5432 5432 5431 5431
5483 5482 5480 5478 5476 5474 5472 5471 5469 5467 5465 5463 5461 5460 5459 5457 5455 5454 5452 5450 5449 5447 5446 5444 5443 5442 5440 5439 5438 5437 5436 5435 5434 5433 5432 5431 5430 5430 5429 5429 5428 5428 5427 5427
5479 5477 5476 5474 5472 5470 5469 5467 5465 5463 5461 5460 5458 5457 5455 5453 5452 5450 5448 5447 5445 5444 5443 5441 5440 5438 5437 5436 5435 5433 5432 5431 5430 5429 5428 5427 5427 5426 5425 5425 5424 5424 5424 5423
5475 5473 5471 5470 5468 5467 5465 5463 5461 5460 5458 5456 5454 5453 5451 5450 5448 5446 5445 5444 5442 5441 5439 5438 5436 5435 5434 5432 5431 5430 5429 5427 5426 5425 5424 5424 5423 5422 5422 5421 5421 5420 5420 5419
5470 5469 5467 5466 5464 5462 5461 5459 5457 5456 5454 5453 5451 5450 5448 5446 5445 5444 5442 5441 5439 5438 5436 5435 5433 5432 5430 5429 5427 5426 5425 5424 5422 5421 5420 5420 5419 5418 5418 5418 5417 5417 5416 5416
5466 5464 5463 5461 5460 5458 5457 5455 5453 5452 5450 5449 5448 5446 5445 5443 5442 5440 5439 5438 5436 5435 5433 5431 5430 5428 5427 5425 5424 5423 5421 5420 5419 5417 5416 5415 5415 5414 5414 5414 5413 5413 5413 5412
5461 5460 5458 5457 5455 5454 5452 5451 5449 5448 5447 5445 5444 5443 5441 5440 5439 5438 5436 5435 5434 5432 5430 5428 5427 5425 5423 5422 5420 5419 5417 5416 5415 5413 5412 5411 5411 5410 5410 5410 5409 5409 5409 5408
5456 5455 5454 5453 5451 5450 5448 5447 5445 5444 5443 5442 5441 5439 5438 5437 5436 5435 5434 5432 5431 5429 5427 5425 5423 5422 5420 5418 5417 5415 5414 5412 5411 5409 5408 5407 5407 5406 5406 5406 5406 5405 5405 5405
5452 5451 5449 5448 5447 5445 5444 5443 5442 5441 5440 5438 5437 5436 5435 5434 5433 5432 5430 5429 5427 5426 5424 5422 5420 5418 5417 5415 5413 5412 5410 5408 5407 5405 5404 5404 5403 5403 5402 5402 5402 5402 5401 5401